TimePST,TemperatureF,Dew PointF,Humidity,Sea Level PressureIn,VisibilityMPH,Wind Direction,Wind SpeedMPH,Gust SpeedMPH,PrecipitationIn,Events,Conditions,WindDirDegrees,DateUTC
12:00 AM,43.0,39.6,88,30.27,-9999.0,Calm,Calm,-,N/A,,Unknown,0,2012-11-25 08:00:00
1:00 AM,43.0,40.1,90,30.27,-9999.0,Calm,Calm,-,N/A,,Unknown,0,2012-11-25 09:00:00
2:00 AM,41.2,38.7,91,30.27,-9999.0,Calm,Calm,-,N/A,,Unknown,0,2012-11-25 10:00:00
3:00 AM,41.2,37.6,87,30.29,-9999.0,Calm,Calm,-,N/A,,Unknown,0,2012-11-25 11:00:00
4:00 AM,42,37,77,30.30,,East,1.2,,,,,100,2012-11-25 12:00:00
4:00 AM,41.7,37.2,84,30.30,-9999.0,East,1.2,-,N/A,,Unknown,100,2012-11-25 12:00:00
5:00 AM,41.0,34.2,77,30.30,-9999.0,NE,6.9,-,N/A,,Unknown,40,2012-11-25 13:00:00
6:00 AM,41.7,34.5,76,30.30,-9999.0,ENE,4.6,-,N/A,,Unknown,60,2012-11-25 14:00:00
7:00 AM,41.5,33.6,73,30.31,-9999.0,NE,5.8,-,N/A,,Unknown,50,2012-11-25 15:00:00
8:00 AM,41.5,34.2,75,30.32,-9999.0,NE,5.8,-,N/A,,Unknown,40,2012-11-25 16:00:00
9:00 AM,42.4,34.3,73,30.33,-9999.0,NE,6.9,-,N/A,,Unknown,40,2012-11-25 17:00:00
10:00 AM,44,35,62,30.34,,NE,4.6,,,,,50,2012-11-25 18:00:00
10:00 AM,44.2,35.2,71,30.34,-9999.0,NE,4.6,-,N/A,,Unknown,50,2012-11-25 18:00:00
11:00 AM,48.0,34.7,60,30.34,-9999.0,ENE,5.8,-,N/A,,Unknown,70,2012-11-25 19:00:00
12:00 PM,46.4,37.2,70,30.33,-9999.0,ESE,13.8,-,N/A,,Unknown,120,2012-11-25 20:00:00
1:00 PM,47.1,33.6,59,30.32,-9999.0,East,10.4,-,N/A,,Unknown,100,2012-11-25 21:00:00
2:00 PM,47.3,35.1,62,30.32,-9999.0,East,11.5,-,N/A,,Unknown,100,2012-11-25 22:00:00
3:00 PM,47.7,33.8,59,30.32,-9999.0,East,4.6,-,N/A,,Unknown,80,2012-11-25 23:00:00
4:00 PM,45,35,56,30.32,,ENE,3.5,,,,,60,2012-11-26 00:00:00
4:00 PM,44.8,34.5,67,30.32,-9999.0,ENE,3.5,-,N/A,,Unknown,60,2012-11-26 00:00:00
5:00 PM,42.4,33.4,70,30.31,-9999.0,NE,4.6,-,N/A,,Unknown,50,2012-11-26 01:00:00
6:00 PM,42.3,33.1,70,30.29,-9999.0,NE,4.6,-,N/A,,Unknown,50,2012-11-26 02:00:00
7:00 PM,41.4,31.5,68,30.29,-9999.0,ENE,4.6,-,N/A,,Unknown,60,2012-11-26 03:00:00
8:00 PM,41.4,32.9,72,30.27,-9999.0,NE,5.8,-,N/A,,Unknown,50,2012-11-26 04:00:00
9:00 PM,41.4,33.1,72,30.27,-9999.0,NE,5.8,-,N/A,,Unknown,50,2012-11-26 05:00:00
10:00 PM,41,33,63,30.25,,NE,5.8,,,,,50,2012-11-26 06:00:00
10:00 PM,40.6,31.3,69,30.25,-9999.0,NE,5.8,-,N/A,,Unknown,50,2012-11-26 06:00:00
11:00 PM,40.8,33.1,74,30.25,-9999.0,ENE,5.8,-,N/A,,Unknown,70,2012-11-26 07:00:00